Regional Weather Roundup
Issued by NWS Upton, NY

Current Version | Previous Version | Text Only | Print | Product List | Glossary On
Versions: 1 2 3 4 5 6 7 8 9 10 11 12 13 14 15 16 17 18 19 20 21 22 23 24 25 26 27 28 29 30 31 32 33 34 35 36 37 38 39 40 41 42 43 44 45 46 47 48 49 50
000 ASUS41 KOKX 300308 RWROKX REGIONAL WEATHER ROUNDUP NATIONAL WEATHER SERVICE NEW YORK NY 1100 PM EDT THU SEP 29 2016 NOTE: "FAIR" INDICATES FEW OR NO CLOUDS BELOW 12,000 FEET WITH NO SIGNIFICANT WEATHER AND/OR OBSTRUCTIONS TO VISIBILITY. NYZ071-072-176-178-NJZ106-104-300400- NEW YORK CITY METRO AREA CITY SKY/WX TMP DP RH WIND PRES REMARKS Central Park CLOUDY 60 52 74 E10G28 30.39F LaGuardia APRT LGT RAIN 64 54 69 NE25G33 30.36F Kennedy INTL LGT RAIN 60 52 74 NE22 30.37F Newark/Liberty LGT RAIN 60 54 80 NE13G22 30.36F Bronx Bot Gard N/A 59 48 67 NE12 30.39S Wall St Helipt CLOUDY 63 55 77 NE20G32 30.35S Teterboro LGT RAIN 59 49 69 NE12G21 30.36F $$ NYZ177-179-078>081-300400- LONG ISLAND NEW YORK CITY SKY/WX TMP DP RH WIND PRES REMARKS Farmingdale CLOUDY 60 52 74 NE14G24 30.38S MacArthur/ISP CLOUDY 59 52 77 NE14G22 30.38S Shirley CLOUDY 60 52 74 NE9G17 30.38F Riverhead NOT AVBL Westhampton CLOUDY 60 51 72 NE17G26 30.39F Southampton NOT AVBL Bridgehampton NOT AVBL East Hampton CLOUDY 59 51 75 E12G20 30.40S Montauk N/A 60 53 77 NE16G28 30.42S $$ NYZ052-065-067-300400- HUDSON VALLEY CITY SKY/WX TMP DP RH WIND PRES REMARKS White Plains MOCLDY 56 47 71 NE15G22 30.39F Newburgh CLOUDY 57 48 72 E14 30.43R Montgomery CLOUDY 58 47 66 NE10G22 30.40F Poughkeepsie MOCLDY 57 45 64 NE7 30.42R Albany CLOUDY 56 44 64 NE5 30.46R $$ NJZ001-105-106-008-010-013-015-019>022-104-300400- NEW JERSEY CITY SKY/WX TMP DP RH WIND PRES REMARKS Newark/Liberty LGT RAIN 60 54 80 NE13G22 30.36F Teterboro LGT RAIN 59 49 69 NE12G21 30.36F Caldwell CLOUDY 59 49 69 E17G24 30.38R Morristown CLOUDY 59 52 77 NE8 30.37S Somerville LGT RAIN 60 54 80 VRB5 30.32F Linden NOT AVBL Sussex LGT RAIN 56 51 84 NE7 30.38S Abdover N/A 55 52 89 VRB5 30.36F Trenton LGT RAIN 58 54 86 E18G28 30.30F Millville LGT RAIN 62 62 100 NE17G24 30.21F Atlantic City RAIN 63 61 93 NE24G35 30.22F FOG Wrightstown LGT RAIN 60 58 93 NE17G26 30.26S Toms River LGT RAIN 61 59 93 NE17G26 30.30S Belmar CLOUDY 61 57 87 NE21G26 30.32F $$ PAZ047>061-062-071-300400- EASTERN PENNSYLVANIA CITY SKY/WX TMP DP RH WIND PRES REMARKS Philadelphia CLOUDY 61 58 90 NE18G28 30.27F Allentown LGT RAIN 58 54 86 NE16G23 30.31F Scranton LGT RAIN 56 50 80 NE12 30.32S $$ CTZ002-004>006-009-010-012-RIZ004-006-007-MAZ004-011-015-300400- SOUTHERN NEW ENGLAND IN CT CITY SKY/WX TMP DP RH WIND PRES REMARKS Bradley INTL CLOUDY 53 46 77 NE7 30.48S Hartford CLOUDY 55 47 74 N9 30.47S Danbury CLOUDY 53 46 77 E14 30.44R Wtrbury/Oxford N/A 54 43 66 E12G20 30.45R Bridgeport CLOUDY 58 48 69 NE16 30.42S Meriden CLOUDY 56 46 69 N7 30.45S New Haven CLOUDY 56 47 71 NE16 30.43F Chester MOCLDY 54 48 82 E9 30.44S Groton CLOUDY 58 49 72 NE9 30.42F Wilimantic CLOUDY 56 49 77 NE9 30.47S IN RI CITY SKY/WX TMP DP RH WIND PRES REMARKS Providence CLOUDY 56 49 77 NE13 30.46F Block Island CLOUDY 60 53 77 NE22G30 30.43S Westerly MOCLDY 58 48 69 NE10 30.44F IN MA CITY SKY/WX TMP DP RH WIND PRES REMARKS Boston MOCLDY 58 50 75 NE20 30.51R Worcester CLOUDY 49 46 90 NE10 30.49S Westfield CLOUDY 53 46 77 NE7 30.49S Provincetown PTCLDY 58 48 69 E16 30.49R Nantucket CLOUDY 60 53 77 NE16 30.43F $$ ANZ330-335-338-340-345-350-353-355-300400- COASTAL MARINE OBSERVATIONS STATION/POSITION TIME SKY/WX TEMP WIND PRES VSBY WAVE AIR SEA DIR/SP/G HT/PER (UTC) (F) (DEG/KT/KT) (MB) (MI) (FT/S) NY HARB ENTRANCE 0250 64 69 60/ 31/ 37 1025.6 11/ 8 20S FIRE ISLAND 0250 63 67 70/ 29/ 35 1025.5 13/ 8 GREAT SOUTH BAY 0215 61 66 60/ 19/ 25 N/A 23 SSW MONTAUK P 0250 62 65 70/ 27/ 33 1027.9 11/ 8 15 E BARNEGAT LI 0200 70 N/A 13/ 9 HUDSON CANYON 0150 67 69 1023.5 13/ 8 KINGS POINT 0242 60 70 1028.1 EXECUTION ROCKS 0245 62 60/ 23/ 35 N/A CENTRAL LI SOUND 0200 60 71 70/ 21/ 25 N/A 4/ 5 EASTERN LI SOUND NOT AVBL ROBBINS REEF 0248 61 60/ 17/ 21 1028.0 $$ >>>>>>>>>>>>>>>>>>>>>>>>>>>> KEY <<<<<<<<<<<<<<<<<<<<<<<<<<< > < > SKY/WX - Sky Condition/Present Weather < > TMP - Temperature in Fahrenheit < > DP - Dew Point in Fahrenheit < > RH - Relative Humidity in Percent < > WIND - Direction (from) and Speed in MPH < > PRES - Mean Sea Level Pressure (inches of Hg) < > WCI - Wind Chill Index < > VSB - VISIBILITY IN MILES < > HX - HEAT INDEX < > TC - TEMPERATURE IN CELSIUS < > VRB - VARIABLE WIND DIRECTION < > < >>>>>>>>>>>>>>>>>>>>>>>>>>>> KEY <<<<<<<<<<<<<<<<<<<<<<<<<<<

USA.gov is the U.S. government's official web portal to all federal, state and local government web resources and services.